Boone, NC

7:31 AM EST on January 24, 2017 (GMT -0500)
Boone

Weather History for KTNB - January, 2014

Change the Weather History Date:

Monday, January 6, 2014

  Actual Average (KGEV) Record (KGEV)
Temperature  
Mean Temperature 20 °F -  
Max Temperature 45 °F 43 °F 62 °F (2005)
Min Temperature -4 °F 22 °F -4 °F (2014)
Degree Days  
Heating Degree Days 44    
Moisture  
Dew Point 12 °F    
Average Humidity 84    
Maximum Humidity 100    
Minimum Humidity 63    
Precipitation  
Precipitation 0.09 in - - ()
Sea Level Pressure  
Sea Level Pressure 29.78 in    
Wind  
Wind Speed 21 mph (WNW)    
Max Wind Speed 38 mph    
Max Gust Speed 55 mph    
Visibility 3 miles    
Events Rain , Snow    
Averages and records for this station are not official NWS values.
T = Trace of Precipitation, MM = Missing Value Source: NWS Daily Summary

Daily Weather History Graph

Daily Weather History Graph

Search for Another Location

Airport or City:

Trip Planner

Search our weather history database for the weather conditions in past years. The results will help you decide how hot, cold, wet, or windy it might be!

Date:

Astronomy

Jan. 06, 2014 Rise Set
Actual Time 7:38 AM EST 5:27 PM EST
Civil Twilight 7:09 AM EST 5:55 PM EST
Nautical Twilight 6:38 AM EST 6:27 PM EST
Astronomical Twilight 6:06 AM EST 6:58 PM EST
Moon 11:04 AM EST (1/6) 11:46 PM EST (1/6)
Length of Visible Light 10h 45m
Length of Day
9h 48m
Waxing Crescent, 34% of the Moon is Illuminated
Jan 6
Waxing Crescent
Jan 7
First Quarter
Jan 15
Full
Jan 24
Last Quarter
Jan 30
New

Hourly Weather History & Observations

Time (EST) Temp. Windchill Dew Point Humidity Pressure Visibility Wind Dir Wind Speed Gust Speed Precip Events Conditions
12:15 AM 40.1 °F 34.1 °F 40.1 °F 100% 29.66 in 4.0 mi SSW 9.2 mph 24.2 mph N/A   Drizzle
12:35 AM 39.9 °F 33.4 °F 39.9 °F 100% 29.65 in 5.0 mi South 10.4 mph 20.7 mph 0.01 in   Drizzle
12:55 AM 41.0 °F 35.2 °F 41.0 °F 100% 29.64 in 4.0 mi SSW 9.2 mph 21.9 mph 0.01 in   Drizzle
1:15 AM 43.0 °F 37.7 °F 42.8 °F 99% 29.62 in 4.0 mi South 9.2 mph 21.9 mph 0.01 in Rain Light Rain
1:35 AM 42.3 °F 37.3 °F 42.1 °F 99% 29.62 in 10.0 mi South 8.1 mph 23.0 mph 0.02 in   Scattered Clouds
1:55 AM 43.0 °F 41.3 °F 42.8 °F 99% 29.62 in 10.0 mi SW 3.5 mph 21.9 mph 0.02 in   Light Drizzle
2:15 AM 45.3 °F 40.1 °F 44.6 °F 97% 29.64 in 5.0 mi WNW 10.4 mph 16.1 mph 0.02 in Rain Rain
2:35 AM 42.4 °F 35.0 °F 41.5 °F 97% 29.65 in 7.0 mi WNW 15.0 mph 24.2 mph 0.05 in Rain Rain
2:55 AM 39.6 °F 31.7 °F 38.8 °F 97% 29.66 in 7.0 mi NW 13.8 mph 28.8 mph 0.05 in Rain Light Rain
3:15 AM 37.0 °F 26.7 °F 36.5 °F 98% 29.66 in 5.0 mi WNW 19.6 mph 29.9 mph N/A Rain Rain
3:35 AM 35.2 °F 23.2 °F 34.3 °F 97% 29.67 in 7.0 mi NW 24.2 mph 34.5 mph 0.01 in   Drizzle
3:55 AM 33.3 °F 20.9 °F 32.5 °F 97% 29.67 in 4.0 mi NW 23.0 mph 33.4 mph 0.01 in   Scattered Clouds
4:15 AM 32.2 °F 18.6 °F 32.0 °F 99% 29.67 in 4.0 mi WNW 26.5 mph 35.7 mph N/A Snow Light Snow
4:35 AM 31.6 °F 17.9 °F 30.4 °F 95% 29.68 in 4.0 mi WNW 26.5 mph 35.7 mph N/A Snow Light Snow
4:55 AM 30.9 °F 19.1 °F 29.3 °F 94% 29.68 in 3.0 mi WNW 18.4 mph 31.1 mph N/A Snow Light Snow
5:15 AM 30.0 °F 17.2 °F 28.6 °F 94% 29.67 in 3.0 mi NW 20.7 mph 29.9 mph N/A Snow Light Snow
5:35 AM 29.3 °F 15.3 °F 27.1 °F 92% 29.68 in 5.0 mi WNW 24.2 mph 39.1 mph N/A   Mostly Cloudy
5:55 AM 28.2 °F 13.6 °F 26.4 °F 93% 29.67 in 4.0 mi WNW 25.3 mph 34.5 mph N/A Snow Light Snow
6:15 AM 27.3 °F 11.3 °F 25.3 °F 92% 29.68 in 4.0 mi NW 29.9 mph 38.0 mph N/A Snow Light Snow
6:35 AM 25.9 °F 9.6 °F 24.6 °F 95% 29.67 in 4.0 mi WNW 28.8 mph 38.0 mph N/A   Overcast
6:55 AM 23.9 °F 7.2 °F 23.9 °F 100% 29.69 in 2.5 mi WNW 27.6 mph 46.0 mph N/A   Overcast
7:15 AM 23.0 °F 5.1 °F 23.0 °F 100% 29.69 in 2.5 mi WNW 31.1 mph 49.5 mph N/A   Overcast
7:35 AM 22.5 °F 3.9 °F 22.5 °F 100% 29.70 in 1.8 mi WNW 33.4 mph 48.3 mph N/A Snow Light Snow
7:55 AM 21.9 °F 3.7 °F 21.4 °F 98% 29.71 in 1.2 mi WNW 31.1 mph 47.2 mph N/A Snow Light Snow
8:15 AM 21.2 °F 1.9 °F 20.3 °F 96% 29.70 in 1.0 mi WNW 34.5 mph 43.7 mph N/A Snow Light Snow
8:35 AM 20.8 °F 1.7 °F 19.8 °F 96% 29.73 in 0.8 mi WNW 33.4 mph 44.9 mph N/A Snow Light Snow
8:55 AM 19.8 °F 1.0 °F 18.5 °F 95% 29.73 in 0.5 mi WNW 29.9 mph 47.2 mph N/A Snow Snow
9:15 AM 19.0 °F 0.3 °F 17.2 °F 93% 29.74 in 0.5 mi WNW 28.8 mph 41.4 mph N/A Snow Light Snow
9:35 AM 18.5 °F -1.3 °F 16.5 °F 92% 29.73 in 0.2 mi WNW 32.2 mph 43.7 mph N/A Snow Snow
9:55 AM 18.1 °F -0.9 °F 16.5 °F 93% 29.74 in 0.2 mi WNW 28.8 mph 44.9 mph N/A Snow Snow
10:15 AM 17.4 °F -3.3 °F 14.2 °F 87% 29.75 in 0.8 mi WNW 34.5 mph 44.9 mph N/A Snow Light Snow
10:35 AM 16.9 °F -4.0 °F 12.0 °F 81% 29.75 in 1.2 mi WNW 34.5 mph 47.2 mph N/A Snow Light Snow
10:55 AM 16.7 °F -3.1 °F 11.8 °F 81% 29.76 in 1.0 mi WNW 29.9 mph 41.4 mph N/A Snow Light Snow
11:15 AM 17.1 °F -3.5 °F 11.5 °F 79% 29.75 in 0.5 mi WNW 33.4 mph 44.9 mph N/A Snow Light Snow
11:35 AM 17.2 °F -4.3 °F 11.5 °F 78% 29.75 in 1.2 mi WNW 38.0 mph 50.6 mph N/A Snow Light Snow
11:55 AM 16.7 °F -4.8 °F 10.6 °F 77% 29.75 in 1.0 mi WNW 36.8 mph 47.2 mph N/A Snow Light Snow
12:15 PM 16.5 °F -4.5 °F 10.0 °F 76% 29.77 in 2.0 mi WNW 34.5 mph 48.3 mph N/A Snow Light Snow
12:35 PM 15.4 °F -3.2 °F 10.2 °F 80% 29.78 in 1.2 mi WNW 24.2 mph 35.7 mph N/A Snow Light Snow
12:55 PM 16.0 °F -0.9 °F 10.0 °F 77% 29.78 in 3.0 mi WNW 19.6 mph 25.3 mph N/A Snow Light Snow
1:15 PM 15.8 °F -2.7 °F 9.9 °F 77% 29.78 in 2.5 mi WNW 24.2 mph 29.9 mph N/A Snow Light Snow
1:35 PM 14.9 °F -3.1 °F 10.2 °F 82% 29.79 in 0.5 mi WNW 21.9 mph 29.9 mph N/A Snow Snow
1:55 PM 14.7 °F -3.8 °F 8.2 °F 75% 29.79 in 2.0 mi WNW 23.0 mph 33.4 mph N/A Snow Light Snow
2:15 PM 13.5 °F -4.2 °F 9.1 °F 83% 29.80 in 0.5 mi NW 19.6 mph 25.3 mph N/A Snow Snow
2:35 PM 12.6 °F -3.3 °F 7.7 °F 81% 29.81 in 0.8 mi WNW 15.0 mph 25.3 mph N/A Snow Light Snow
2:55 PM 12.2 °F -3.7 °F 7.3 °F 81% 29.82 in 0.8 mi WNW 15.0 mph 21.9 mph N/A Snow Light Snow
3:15 PM 11.8 °F -6.3 °F 6.3 °F 78% 29.83 in 1.0 mi WNW 19.6 mph 27.6 mph N/A Snow Light Snow
3:35 PM 11.5 °F -7.2 °F 5.7 °F 78% 29.85 in 1.0 mi WNW 20.7 mph 32.2 mph N/A Snow Light Snow
3:55 PM 9.5 °F -9.8 °F 4.6 °F 81% 29.86 in 0.5 mi WNW 20.7 mph 29.9 mph N/A Snow Light Snow
4:15 PM 7.9 °F -9.3 °F 2.3 °F 78% 29.86 in 1.0 mi WNW 15.0 mph 29.9 mph N/A Snow Light Snow
4:35 PM 6.6 °F -14.5 °F 1.4 °F 79% 29.86 in 0.8 mi WNW 23.0 mph 32.2 mph N/A Snow Light Snow
4:55 PM 4.6 °F -20.2 °F -1.5 °F 76% 29.87 in 0.5 mi NW 32.2 mph 39.1 mph N/A Snow Light Snow
5:15 PM 3.7 °F -19.2 °F -4.0 °F 70% 29.87 in 1.2 mi WNW 25.3 mph 50.6 mph N/A Snow Light Snow
5:35 PM 3.0 °F -21.7 °F -5.6 °F 67% 29.87 in 2.5 mi WNW 29.9 mph 39.1 mph N/A   Haze
5:55 PM 2.5 °F -19.5 °F -5.3 °F 70% 29.87 in 4.0 mi WNW 21.9 mph 40.3 mph N/A   Haze
6:15 PM 1.4 °F -22.7 °F -8.7 °F 63% 29.89 in 7.0 mi WNW 26.5 mph 41.4 mph N/A   Clear
6:35 PM 0.7 °F -25.3 °F -9.2 °F 63% 29.89 in 7.0 mi WNW 31.1 mph 48.3 mph N/A   Clear
6:55 PM 0.3 °F -24.2 °F -8.9 °F 65% 29.91 in 5.0 mi WNW 26.5 mph 43.7 mph N/A   Haze
7:15 PM 0.1 °F -24.0 °F -8.0 °F 69% 29.92 in 4.0 mi WNW 25.3 mph 38.0 mph N/A   Haze
7:35 PM -0.0 °F -22.4 °F -7.1 °F 72% 29.92 in 2.5 mi WNW 20.7 mph 32.2 mph N/A Snow Light Snow
7:55 PM -0.4 °F -22.3 °F -6.3 °F 76% 29.93 in 2.5 mi WNW 19.6 mph 32.2 mph N/A Snow Light Snow
8:15 PM -0.9 °F -25.9 °F -9.0 °F 69% 29.94 in 4.0 mi NW 26.5 mph 36.8 mph N/A   Haze
8:35 PM -1.5 °F -24.3 °F -9.9 °F 67% 29.94 in 5.0 mi WNW 20.7 mph 39.1 mph N/A   Haze
8:55 PM -1.8 °F -28.3 °F -10.3 °F 67% 29.94 in 5.0 mi WNW 29.9 mph 42.6 mph N/A   Haze
9:15 PM -2.2 °F -28.4 °F -11.2 °F 66% 29.96 in 5.0 mi WNW 28.8 mph 40.3 mph N/A   Haze
9:35 PM -2.7 °F -30.7 °F -11.9 °F 65% 29.95 in 5.0 mi WNW 33.4 mph 42.6 mph N/A   Haze
9:55 PM -3.1 °F -25.3 °F -10.8 °F 70% 29.96 in 5.0 mi WNW 18.4 mph 41.4 mph N/A   Haze
10:15 PM -3.3 °F -28.6 °F -11.2 °F 69% 29.95 in 5.0 mi WNW 25.3 mph 39.1 mph N/A   Haze
10:35 PM -3.5 °F -28.4 °F -10.7 °F 71% 29.94 in 3.0 mi WNW 24.2 mph 35.7 mph N/A   Haze
10:55 PM -4.0 °F -33.1 °F -11.4 °F 71% 29.92 in 2.5 mi WNW 35.7 mph 48.3 mph N/A   Haze
11:15 PM -4.0 °F -28.6 °F -9.8 °F 76% 29.93 in 1.0 mi WNW 23.0 mph 40.3 mph N/A Snow Light Snow
11:35 PM -4.2 °F -30.7 °F -10.1 °F 76% 29.92 in 1.2 mi WNW 27.6 mph 51.8 mph N/A Snow Light Snow
11:55 PM -4.9 °F -35.0 °F -11.2 °F 74% 29.91 in 1.8 mi WNW 38.0 mph 55.2 mph N/A Snow Light Snow